This is the latest recevied weather packets stored in our database for station/object KM4RT-13. If no packets are shown the sender has not sent any weather packets the latest 10 day(s).
| Time | Temp. | Humidity | Pressure | Rain* | Wind** | Luminosity | Snow |
|---|---|---|---|---|---|---|---|
| 1777599554 | 13.33° C | 76% | 1013.3 hPa | 0 mm | - | 0 W/m² | - |
| 1777599251 | 13.33° C | 73% | 1013.3 hPa | 0 mm | - | 0 W/m² | - |
| 1777598947 | 13.89° C | 73% | 1013.3 hPa | 0 mm | - | 0 W/m² | - |
| 1777598644 | 13.89° C | 72% | 1013.5 hPa | 0 mm | - | 0 W/m² | - |
| 1777598340 | 14.44° C | 72% | 1013.5 hPa | 0 mm | - | 0 W/m² | - |
| 1777598038 | 14.44° C | 70% | 1013.3 hPa | 0 mm | - | 0 W/m² | - |
| 1777597737 | 14.44° C | 70% | 1013.2 hPa | 0 mm | - | 0 W/m² | - |
| 1777597433 | 13.89° C | 70% | 1013 hPa | 0 mm | - | 0 W/m² | - |
| 1777597128 | 14.44° C | 72% | 1013.3 hPa | 0 mm | - | 0 W/m² | - |
| 1777596825 | 14.44° C | 71% | 1013 hPa | 0 mm | - | 1 W/m² | - |
| 1777596520 | 15° C | 69% | 1012.8 hPa | 0 mm | - | 1 W/m² | - |
| 1777596219 | 15° C | 64% | 1012.8 hPa | 0 mm | - | 2 W/m² | - |
| 1777595915 | 15° C | 64% | 1012.9 hPa | 0 mm | - | 4 W/m² | - |
| 1777595610 | 15° C | 65% | 1012.9 hPa | 0 mm | - | 6 W/m² | - |
| 1777595306 | 15.56° C | 62% | 1013 hPa | 0 mm | - | 9 W/m² | - |
| 1777595003 | 15.56° C | 59% | 1012.9 hPa | 0 mm | - | 13 W/m² | - |
| 1777594699 | 16.11° C | 58% | 1012.8 hPa | 0 mm | - | 20 W/m² | - |
| 1777594396 | 16.11° C | 55% | 1012.6 hPa | 0 mm | - | 25 W/m² | - |
| 1777594091 | 16.11° C | 55% | 1012.6 hPa | 0 mm | - | 26 W/m² | - |
| 1777593788 | 16.11° C | 52% | 1012.3 hPa | 0 mm | - | 31 W/m² | - |
| 1777593484 | 16.11° C | 52% | 1012.6 hPa | 0 mm | - | 37 W/m² | - |
| 1777593182 | 16.67° C | 52% | 1012.4 hPa | 0 mm | - | 45 W/m² | - |
| 1777592876 | 16.11° C | 54% | 1012.5 hPa | 0 mm | - | 43 W/m² | - |
| 1777592573 | 16.67° C | 51% | 1012.6 hPa | 0 mm | - | 37 W/m² | - |
| 1777592268 | 16.67° C | 52% | 1012.6 hPa | 0 mm | - | 36 W/m² | - |
* Rain latest hour (hover to see other rain measurements)
** Current wind speed in m/s (hover to see current wind gust speed)